Date,TemperatureHighF,TemperatureAvgF,TemperatureLowF,DewpointHighF,DewpointAvgF,DewpointLowF,HumidityHigh,HumidityAvg,HumidityLow,PressureMaxIn,PressureMinIn,WindSpeedMaxMPH,WindSpeedAvgMPH,GustSpeedMaxMPH,PrecipitationSumIn
2013-1-1,65.3,53.8,46.5,65.3,52.7,43.7,100,96,90,30.19,29.91,7,0,8,2.12
2013-1-2,46.5,42.4,39.1,44.0,39.9,37.2,94,91,87,30.31,30.17,6,0,7,0.00
2013-1-3,56.0,44.0,32.7,41.1,37.0,31.9,98,78,47,30.42,30.29,8,0,8,0.00
2013-1-4,48.6,45.1,41.1,40.8,38.2,36.6,89,77,66,30.51,30.34,6,0,6,0.00
2013-1-5,44.9,43.6,41.6,44.4,42.8,40.3,99,97,86,30.40,30.25,4,0,4,0.54
2013-1-6,59.4,46.2,35.1,48.4,43.0,34.6,99,90,62,30.35,30.24,7,0,7,0.00
2013-1-7,58.6,45.2,32.9,46.4,40.7,32.4,100,86,58,30.33,30.12,6,0,6,0.00
2013-1-8,63.1,55.4,48.2,62.8,54.2,44.6,100,96,85,30.12,29.93,11,1,11,0.56
2013-1-9,67.4,64.1,61.3,67.1,63.9,61.0,100,99,98,30.06,29.90,12,1,12,1.26
2013-1-10,69.1,61.1,51.1,64.8,59.2,50.3,100,94,71,30.09,29.93,9,0,10,0.31
2013-1-11,73.9,58.5,42.9,64.4,54.0,42.9,100,87,52,30.05,29.91,7,0,7,0.00
2013-1-12,74.2,72.0,64.9,71.6,70.6,64.9,100,95,89,29.92,29.74,12,2,15,0.07
2013-1-13,72.3,50.1,42.2,70.5,48.3,41.3,99,94,88,30.14,29.78,10,1,13,0.36
2013-1-14,44.2,40.7,37.9,42.3,39.1,37.0,98,94,91,30.24,30.06,9,1,9,0.23
2013-1-15,39.1,36.5,34.2,37.2,35.4,33.4,98,96,93,30.15,30.03,7,0,8,0.05
2013-1-16,53.1,40.4,30.9,39.2,33.4,28.5,97,79,44,30.26,30.11,10,0,13,0.00
2013-1-17,62.7,41.2,26.0,40.8,32.9,25.5,99,77,38,30.47,30.25,11,0,11,0.00
2013-1-18,63.3,43.2,30.8,42.4,35.2,29.2,100,78,29,30.56,30.38,5,0,6,0.00
2013-1-19,68.3,46.3,30.1,51.0,41.5,29.6,100,86,47,30.38,30.20,7,0,9,0.00
2013-1-20,71.5,51.4,37.1,55.1,46.0,36.8,100,85,47,30.29,30.12,8,0,8,0.00
2013-1-21,71.5,52.2,39.5,55.3,47.4,39.2,100,86,49,30.25,30.15,4,0,5,0.00
2013-1-22,70.3,52.3,40.3,52.7,46.5,38.6,98,83,52,30.36,30.22,9,0,9,0.00
2013-1-23,74.5,56.0,40.3,60.3,51.2,39.9,100,86,55,30.37,30.24,12,0,12,0.00
2013-1-24,72.5,62.0,53.6,66.7,60.4,52.8,100,95,81,30.31,30.16,10,0,10,0.00
2013-1-25,77.5,65.1,57.6,66.0,61.3,57.0,100,89,61,30.21,30.08,14,1,14,0.00
2013-1-26,77.9,63.4,55.6,66.8,59.6,55.3,100,89,57,30.22,30.11,10,0,10,0.00
2013-1-27,75.0,65.4,55.7,66.2,62.1,55.1,100,90,73,30.17,30.08,12,1,12,0.00
2013-1-28,77.6,70.5,66.3,68.0,66.6,64.3,96,88,70,30.14,30.00,13,1,13,0.00
2013-1-29,75.6,71.5,58.8,71.5,69.2,57.7,97,93,84,30.01,29.65,18,2,19,0.48
2013-1-30,58.8,52.5,35.2,57.6,40.2,30.9,98,66,37,30.23,29.74,20,2,22,0.04
2013-1-31,66.2,48.1,30.0,43.1,34.1,28.4,99,65,28,30.32,30.21,12,1,12,0.00
2013-2-1,71.0,53.8,42.4,47.6,43.3,37.1,97,72,31,30.39,30.26,9,0,9,0.00
2013-2-2,73.8,56.0,41.4,57.9,49.9,40.9,100,83,49,30.28,30.17,10,0,10,0.00
2013-2-3,72.7,55.2,42.1,52.5,42.5,31.0,100,71,22,30.33,30.08,9,0,9,0.00
2013-2-4,67.3,56.9,43.9,63.0,54.8,42.7,99,93,83,30.09,29.87,5,0,5,0.01
2013-2-5,78.3,65.8,61.0,67.7,62.8,60.5,100,91,61,30.02,29.89,4,0,4,0.00
2013-2-6,63.3,61.2,58.9,62.8,60.7,58.6,100,98,96,30.07,29.87,10,0,10,0.86
2013-2-7,66.5,61.0,54.3,62.3,59.4,53.8,100,95,85,29.99,29.89,4,0,5,0.00
2013-2-8,63.4,58.9,49.5,60.3,55.2,48.1,99,88,74,30.17,29.98,9,0,9,0.00
2013-2-9,66.5,56.4,45.1,64.7,54.4,44.3,99,93,84,30.17,29.91,11,1,11,0.00
2013-2-10,74.0,65.7,60.3,70.9,64.0,58.4,98,94,81,29.97,29.79,22,1,22,0.15
2013-2-11,60.8,54.4,51.5,60.2,52.1,47.8,98,92,73,30.11,29.96,11,1,11,0.16
2013-2-12,60.5,56.0,52.0,60.5,55.3,51.0,100,98,94,30.01,29.79,9,0,9,0.20
2013-2-13,60.7,50.4,38.1,51.0,44.2,37.3,98,81,53,30.11,29.94,10,0,11,0.00
2013-2-14,67.1,47.3,31.1,46.3,39.2,30.8,100,78,36,30.17,30.05,8,0,8,0.00
2013-2-15,68.4,50.2,34.8,49.7,41.1,34.5,100,75,39,30.31,30.11,10,0,10,0.00
2013-2-16,59.9,45.1,31.2,36.4,30.9,24.2,95,62,29,30.43,30.25,13,0,13,0.00
2013-2-17,70.5,51.4,33.3,48.5,41.8,32.1,99,74,39,30.27,30.10,14,1,16,0.00
2013-2-18,71.7,63.9,48.4,64.3,59.0,46.5,98,84,72,30.10,29.84,16,2,16,0.56
2013-2-19,67.7,54.0,41.1,53.8,42.2,32.6,99,71,29,30.26,30.05,9,1,10,0.00
2013-2-20,60.4,56.8,55.9,48.8,45.0,35.6,75,65,41,30.09,29.87,11,2,13,0.00
2013-2-21,76.3,63.9,54.7,71.9,61.0,49.1,99,90,76,29.87,29.66,16,2,16,0.02
2013-2-22,64.6,56.7,51.9,56.1,52.2,49.1,99,86,64,30.00,29.84,7,0,8,0.00
2013-2-23,70.5,55.3,45.9,53.0,48.1,43.9,95,79,48,30.00,29.89,6,0,6,0.00
2013-2-24,69.5,56.5,41.5,54.1,48.8,40.6,99,77,53,29.97,29.69,7,0,7,0.00
2013-2-25,75.8,63.2,47.5,69.4,50.1,25.6,99,69,17,29.69,29.44,24,2,26,0.00
2013-2-26,64.2,51.1,42.5,43.2,38.1,33.3,90,63,41,29.94,29.69,20,2,23,0.00
2013-2-27,72.8,53.3,38.6,52.5,40.4,31.4,99,67,29,30.14,29.92,20,1,23,0.00
2013-2-28,57.6,44.1,35.9,38.4,33.2,29.0,95,67,37,30.27,30.12,9,0,9,0.00
2013-3-1,63.9,47.2,31.3,37.6,32.5,28.5,96,63,29,30.27,30.12,13,1,14,0.00
2013-3-2,54.5,41.8,30.5,34.0,30.2,25.8,93,67,36,30.34,30.22,15,0,15,0.00
2013-3-3,68.0,46.5,26.6,42.2,33.0,25.9,98,66,29,30.30,30.03,11,1,11,0.00
2013-3-4,77.2,64.1,44.5,62.3,57.4,41.8,95,80,59,30.04,29.80,23,2,24,0.00
2013-3-5,71.2,62.4,40.0,62.9,46.6,29.8,95,61,26,30.31,29.82,13,1,15,0.00
2013-3-6,68.8,47.8,30.3,38.8,31.5,22.0,93,60,18,30.42,30.24,8,0,8,0.00
2013-3-7,70.7,51.3,33.6,46.7,40.1,32.6,97,70,35,30.33,30.19,8,0,8,0.00
2013-3-8,74.5,58.1,41.2,59.1,51.2,39.8,97,79,51,30.26,30.10,9,1,9,0.00
2013-3-9,73.6,64.6,56.0,64.4,60.5,52.8,97,87,70,30.10,29.83,16,2,16,0.00
2013-3-10,69.0,60.5,50.0,65.2,57.3,41.3,98,90,68,30.04,29.76,13,1,15,0.38
2013-3-11,63.1,49.7,37.7,41.2,36.6,31.8,93,64,33,30.12,29.97,13,1,13,0.00
2013-3-12,73.3,50.5,31.3,44.3,36.2,30.4,99,66,24,30.27,30.09,6,0,7,0.00
2013-3-13,74.6,53.8,36.6,44.3,37.8,29.8,99,64,20,30.45,30.27,10,0,10,0.00
2013-3-14,75.0,55.7,37.5,46.5,41.2,36.1,96,64,30,30.44,30.28,12,1,12,0.00
2013-3-15,78.8,60.7,41.9,59.5,51.7,41.1,99,76,41,30.30,30.08,15,1,15,0.00
2013-3-16,80.0,66.9,57.2,62.7,59.3,56.6,98,79,49,30.08,29.88,15,2,18,0.00
2013-3-17,80.5,68.5,59.0,68.5,63.9,58.0,99,86,60,29.91,29.73,17,1,17,0.00
2013-3-18,89.1,75.5,67.8,71.2,67.7,62.9,96,79,49,29.91,29.72,13,1,13,0.00
2013-3-19,81.7,68.6,54.2,64.0,54.9,41.8,93,63,40,30.01,29.90,9,1,10,0.00
2013-3-20,75.3,61.2,48.4,55.5,45.5,32.8,97,62,24,30.20,29.98,13,1,13,0.05
2013-3-21,71.9,59.6,47.1,58.6,48.8,39.5,86,69,42,30.06,29.74,11,1,14,0.00
2013-3-22,84.3,72.6,63.2,71.2,67.1,58.6,96,84,59,29.77,29.66,13,1,13,0.00
2013-3-23,74.1,69.3,65.5,70.3,67.9,62.1,98,95,87,29.75,29.58,6,0,7,0.00
2013-3-24,65.4,56.8,39.3,62.2,45.0,32.8,98,68,34,30.12,29.64,17,1,18,0.00
2013-3-25,63.1,46.2,31.3,34.4,28.8,23.7,97,58,23,30.36,30.13,11,0,13,0.00
2013-3-26,62.6,45.6,28.4,33.8,27.1,22.8,91,53,24,30.49,30.33,14,0,14,0.00
2013-3-27,69.8,50.0,30.9,44.5,37.7,29.8,97,68,33,30.41,30.22,10,1,11,0.00
2013-3-28,73.5,59.8,47.6,58.2,52.0,44.4,96,77,53,30.31,30.20,8,1,8,0.00
2013-3-29,77.0,64.2,52.9,62.9,58.4,52.4,100,83,56,30.26,30.14,12,1,12,0.00
2013-3-30,77.8,66.9,58.2,65.5,61.5,57.3,99,84,61,30.16,29.98,12,1,14,0.00
2013-3-31,79.8,65.1,58.9,69.0,62.9,58.1,99,93,63,29.99,29.88,15,1,17,0.36
2013-4-1,82.5,68.0,59.2,67.3,62.6,58.9,100,85,54,30.09,29.96,6,0,6,0.00
2013-4-2,76.3,66.2,57.6,65.3,61.5,56.9,100,86,65,30.04,29.87,10,0,10,0.01
2013-4-3,64.2,54.9,49.0,63.3,53.7,48.1,99,96,88,30.10,29.82,13,1,17,0.19
2013-4-4,53.0,49.1,46.4,48.2,46.5,44.5,98,91,82,30.17,30.01,9,0,9,0.00
2013-4-5,75.3,57.3,41.9,55.5,47.8,41.1,98,75,41,30.24,30.08,6,0,7,0.00
2013-4-6,75.4,60.2,46.5,59.8,54.3,46.0,100,83,56,30.12,29.98,11,1,14,0.00
2013-4-7,80.3,67.7,55.2,64.7,61.4,54.3,98,82,56,30.02,29.89,11,1,11,0.00
2013-4-8,80.3,71.5,65.0,69.1,66.3,64.1,98,84,65,29.91,29.82,12,2,14,0.00
2013-4-9,81.6,73.5,67.3,73.1,69.7,65.8,96,88,74,29.85,29.77,13,2,14,0.00
2013-4-10,80.3,69.9,49.5,73.9,67.0,49.0,98,91,80,29.85,29.72,14,2,17,0.53
2013-4-11,69.6,52.2,43.4,55.3,48.1,42.9,99,88,49,29.92,29.76,11,0,12,2.66
2013-4-12,80.0,59.0,41.7,56.3,48.3,41.3,100,74,30,30.02,29.86,4,0,4,0.00
2013-4-13,80.5,62.8,45.7,58.8,52.9,45.4,100,75,38,30.01,29.83,10,0,10,0.00
2013-4-14,83.0,68.6,56.9,68.6,62.3,55.8,98,82,53,29.83,29.68,8,0,11,0.00
2013-4-15,86.8,73.0,60.6,73.4,68.5,59.9,100,87,59,29.88,29.75,8,1,10,0.00
2013-4-16,82.3,75.5,72.3,75.3,73.1,71.5,99,93,77,29.98,29.86,10,1,10,0.02
2013-4-17,78.5,75.2,73.1,74.6,72.9,71.5,98,92,84,29.98,29.81,14,2,14,0.01
2013-4-18,78.8,67.4,49.8,73.9,64.9,47.8,98,92,83,30.05,29.73,14,1,14,0.12
2013-4-19,66.4,51.7,41.5,47.8,40.8,36.9,95,70,34,30.23,30.04,9,0,11,0.00
2013-4-20,72.5,53.4,35.7,46.6,41.0,35.1,99,69,32,30.27,30.10,8,0,8,0.00
2013-4-21,76.6,58.5,42.7,56.7,49.7,42.0,99,76,45,30.21,30.07,8,0,9,0.00
2013-4-22,80.8,64.0,48.0,60.3,53.7,47.5,99,74,39,30.14,29.96,8,0,8,0.00
2013-4-23,81.1,67.8,53.3,71.1,64.1,52.5,100,89,67,30.00,29.91,12,0,13,0.00
2013-4-24,71.0,60.2,47.7,70.4,54.4,47.2,99,83,53,30.22,29.94,10,1,11,0.30
2013-4-25,74.0,61.8,51.0,54.2,49.5,45.9,92,67,38,30.33,30.20,7,0,8,0.00
2013-4-26,79.8,69.2,59.9,70.1,62.9,50.2,95,81,61,30.24,30.10,9,0,9,0.00
2013-4-27,81.2,72.2,65.6,73.9,69.2,64.9,99,91,74,30.14,29.97,10,0,11,0.00
2013-4-28,84.5,71.8,61.6,68.9,64.5,60.3,99,80,49,30.03,29.89,10,0,11,0.00
2013-4-29,85.0,69.9,57.4,70.3,64.3,56.8,99,85,54,29.96,29.83,8,0,8,0.00
2013-4-30,83.7,71.8,64.9,71.7,67.7,64.0,99,88,58,29.87,29.75,9,0,9,0.05
2013-5-1,85.0,73.3,65.6,72.3,68.4,64.2,99,86,63,29.89,29.81,8,0,8,0.00
2013-5-2,78.3,66.7,51.7,68.2,62.4,47.1,99,87,68,30.13,29.88,16,1,16,0.00
2013-5-3,67.4,53.8,42.7,47.2,41.8,34.5,93,68,32,30.14,30.02,16,1,16,0.00
2013-5-4,78.9,58.8,37.8,50.2,43.1,37.0,99,64,27,30.08,29.83,16,1,16,0.00
2013-5-5,70.1,56.5,42.9,49.7,46.0,40.8,95,71,43,30.08,29.94,12,0,12,0.00
2013-5-6,80.5,61.2,42.7,59.9,51.6,42.2,99,75,40,30.09,29.95,9,0,9,0.00
2013-5-7,86.0,69.8,53.2,63.3,58.3,52.4,99,71,40,30.06,29.95,9,0,9,0.00
2013-5-8,84.2,69.9,56.2,67.6,62.5,55.6,99,80,50,30.08,29.98,11,1,11,0.00
2013-5-9,76.0,69.8,61.5,72.7,68.1,60.8,99,94,87,30.03,29.88,8,0,10,0.01
2013-5-10,75.2,69.2,66.0,71.6,68.2,66.0,100,97,84,30.04,29.85,14,0,14,6.28
2013-5-11,85.9,72.8,64.7,72.4,67.1,62.4,100,84,55,30.09,29.90,5,0,6,0.03
2013-5-12,82.0,68.2,56.3,66.5,61.3,54.1,99,81,55,30.18,30.07,6,0,7,0.00
2013-5-13,82.7,65.2,48.5,57.7,53.0,46.0,100,71,32,30.30,30.17,7,0,8,0.00
2013-5-14,85.3,68.7,52.5,67.5,57.8,46.2,100,74,28,30.24,30.11,16,1,16,0.00
2013-5-15,77.6,68.4,58.4,69.7,64.7,57.8,100,89,73,30.16,29.94,10,0,10,0.00
2013-5-16,84.0,74.5,66.6,72.9,69.6,66.0,99,86,66,29.97,29.84,12,1,12,0.01
2013-5-17,87.4,77.3,70.7,77.3,72.8,69.8,98,87,69,29.96,29.86,11,0,12,0.00
2013-5-18,89.8,79.5,73.4,75.6,73.1,71.5,96,82,58,29.98,29.91,14,1,14,0.00
2013-5-19,88.9,80.3,74.3,75.9,73.6,71.2,94,81,58,29.93,29.84,14,1,14,0.00
2013-5-20,88.0,80.2,75.3,77.6,75.2,73.2,97,85,68,29.92,29.81,13,1,13,0.01
2013-5-21,87.5,80.3,74.9,77.2,75.1,72.7,94,85,68,29.87,29.73,12,1,14,0.00
2013-5-22,87.5,76.0,66.8,77.6,72.1,66.0,99,88,69,29.93,29.77,9,0,9,0.48
2013-5-23,89.4,78.6,69.5,79.0,74.2,69.2,100,88,65,30.06,29.91,7,0,7,0.00
2013-5-24,89.3,81.7,70.4,78.3,75.1,70.1,100,82,67,30.14,30.01,5,0,5,0.00
2013-5-25,88.8,88.8,88.8,76.9,76.9,76.9,68,68,68,30.09,30.09,0,0,4,0.00
2013-5-26,89.0,84.4,70.3,77.1,74.6,69.4,97,73,61,30.11,30.02,10,0,10,0.02
2013-5-27,88.4,77.1,65.4,75.6,70.7,65.1,100,83,59,30.06,29.94,10,1,10,0.00
2013-5-28,89.3,78.6,68.0,74.5,70.9,67.7,100,79,53,29.98,29.89,15,1,16,0.00
2013-5-29,82.2,78.3,74.2,74.7,73.9,73.0,96,87,76,29.89,29.83,9,1,10,0.00
2013-5-30,86.4,80.1,73.9,78.8,75.7,72.7,97,87,74,29.91,29.83,11,1,11,0.02
2013-5-31,89.9,81.6,76.3,79.3,77.0,75.5,98,87,68,29.92,29.85,10,1,11,0.01
2013-6-1,92.0,82.7,75.7,80.8,77.1,74.5,98,84,64,29.90,29.84,12,1,12,0.00
2013-6-2,85.2,75.6,68.4,76.4,72.2,67.6,99,90,67,30.03,29.88,12,0,12,0.32
2013-6-3,90.0,76.5,64.9,73.7,69.4,64.7,100,81,51,29.95,29.84,5,0,6,0.00
2013-6-4,93.0,79.9,68.6,77.1,72.1,67.8,98,79,50,29.93,29.81,6,0,7,0.00
2013-6-5,94.8,81.9,69.5,79.3,75.1,69.2,100,82,53,29.90,29.74,8,0,8,0.00
2013-6-6,90.3,76.6,67.0,79.5,73.2,65.8,100,90,65,29.91,29.73,12,0,12,1.12
2013-6-7,87.0,73.2,64.9,74.0,68.5,64.9,100,87,57,29.93,29.84,7,0,7,0.00
2013-6-8,90.2,76.3,64.7,75.3,70.2,64.4,100,83,55,29.93,29.83,9,0,10,0.00
2013-6-9,89.3,75.2,69.4,79.7,72.8,69.0,100,93,69,29.96,29.83,11,0,11,0.01
2013-6-10,92.8,79.8,67.7,79.9,74.4,67.7,100,85,59,29.99,29.94,7,0,7,0.01
2013-6-11,93.3,81.4,70.6,81.9,76.0,70.3,100,85,62,30.05,29.97,7,0,7,0.01
2013-6-12,94.2,82.6,71.1,80.1,76.3,70.8,100,83,56,30.07,29.96,10,0,10,0.00
2013-6-13,96.7,83.8,72.7,80.5,77.2,72.4,100,83,53,30.06,29.90,7,0,7,0.00
2013-6-14,96.3,84.6,72.5,84.2,78.3,71.2,100,83,58,30.01,29.85,8,0,8,0.04
2013-6-15,94.8,80.4,71.4,81.7,76.0,71.1,100,88,63,29.99,29.89,6,0,6,0.19
2013-6-16,94.0,82.1,71.1,80.7,75.8,71.1,100,83,59,30.04,29.93,7,0,7,0.00
2013-6-17,94.8,83.3,74.3,78.7,75.8,72.7,100,80,51,30.01,29.89,12,1,12,0.00
2013-6-18,93.8,80.0,72.2,79.0,75.4,71.7,99,87,55,29.98,29.89,10,1,10,0.65
2013-6-19,86.5,77.0,72.1,80.7,74.9,71.5,100,94,75,30.02,29.93,11,0,11,1.05
2013-6-20,94.2,80.8,72.7,80.6,76.6,72.7,100,88,57,30.09,29.98,7,0,7,0.25
2013-6-21,94.0,80.8,71.8,80.4,76.0,71.8,100,87,58,30.10,30.02,6,0,7,0.00
2013-6-22,92.5,81.0,71.4,80.5,75.6,71.3,100,85,62,30.07,29.95,7,0,7,0.00
2013-6-23,92.5,80.8,71.3,80.2,75.5,71.0,100,85,62,30.04,29.95,9,0,10,0.00
2013-6-24,93.0,81.9,72.2,81.1,76.2,71.9,100,84,59,30.07,29.98,9,0,13,0.00
2013-6-25,93.8,83.2,74.6,80.1,76.9,74.2,99,83,59,30.06,29.94,8,0,9,0.00
2013-6-26,95.0,84.4,75.8,80.5,77.0,73.3,97,80,53,30.02,29.92,8,0,10,0.00
2013-6-27,96.8,83.7,71.6,79.5,76.0,71.2,99,80,49,30.02,29.91,8,0,8,0.00
2013-6-28,97.5,84.5,74.4,81.2,77.1,73.7,98,80,52,29.98,29.78,10,0,10,0.00
2013-6-29,101.2,86.4,74.8,80.2,75.2,71.0,92,72,43,29.82,29.69,11,0,11,0.00
2013-6-30,94.9,81.0,66.0,73.8,68.2,63.2,99,69,38,29.84,29.76,11,0,14,0.00
2013-7-1,89.1,75.6,62.5,72.8,67.3,61.3,98,77,53,29.94,29.84,7,0,7,0.00
2013-7-2,92.3,76.9,63.9,71.9,67.2,62.5,99,77,40,30.00,29.92,9,0,9,0.36
2013-7-3,92.5,77.2,65.5,74.0,68.8,63.1,100,79,38,30.03,29.92,4,0,5,0.00
2013-7-4,92.2,78.1,65.8,75.6,70.1,65.3,99,79,49,29.99,29.90,5,0,6,0.00
2013-7-5,94.0,80.3,66.4,77.2,70.4,64.2,99,75,40,29.98,29.87,8,0,8,0.00
2013-7-6,93.0,80.9,70.7,77.3,73.6,70.4,99,80,54,29.96,29.86,6,0,6,0.00
2013-7-7,88.9,78.5,73.1,80.4,75.9,72.2,99,92,70,30.01,29.91,7,0,7,0.12
2013-7-8,88.7,79.7,72.5,80.5,76.3,72.2,100,90,73,30.13,30.01,11,0,11,0.00
2013-7-9,96.8,82.6,71.0,80.7,75.7,70.7,100,82,50,30.15,30.04,8,0,11,0.00
2013-7-10,96.1,83.8,73.5,79.2,76.4,73.2,99,80,52,30.09,29.95,8,0,8,0.00
2013-7-11,95.3,84.1,74.9,79.4,76.8,74.3,99,80,56,30.00,29.89,8,0,10,0.00
2013-7-12,99.3,85.1,75.2,79.7,75.8,72.1,97,76,46,29.97,29.84,9,0,9,0.00
2013-7-13,98.8,82.8,72.3,78.3,70.9,57.4,99,72,28,29.96,29.84,7,0,8,0.00
2013-7-14,88.5,78.0,70.1,76.6,70.9,66.2,91,80,61,29.97,29.88,10,0,10,0.00
2013-7-15,92.0,77.9,71.4,78.8,74.2,67.4,99,89,61,30.07,29.92,7,0,8,0.03
2013-7-16,88.5,76.1,72.4,79.4,74.4,72.0,99,95,71,30.14,30.04,8,0,8,0.33
2013-7-17,87.8,76.8,72.7,81.5,75.4,72.3,100,96,77,30.21,30.10,6,0,6,1.48
2013-7-18,95.0,79.9,69.3,79.9,73.5,69.2,100,83,51,30.15,29.98,8,0,8,0.02
2013-7-19,87.0,75.4,69.9,79.2,72.8,69.5,100,92,73,30.06,29.94,7,0,8,0.00
2013-7-20,89.3,76.6,68.8,78.1,73.0,68.5,100,90,62,29.98,29.89,6,0,9,0.00
2013-7-21,89.2,78.9,72.2,80.2,75.3,71.9,100,89,69,30.00,29.92,10,0,11,0.01
2013-7-22,93.3,83.4,74.2,81.9,77.7,73.9,100,84,63,30.03,29.95,13,1,13,0.01
2013-7-23,94.2,83.7,75.7,80.7,77.9,75.4,99,84,61,30.04,29.90,11,1,12,0.00
2013-7-24,92.9,82.8,73.1,80.2,76.7,72.7,100,84,58,30.02,29.87,11,1,11,0.00
2013-7-25,95.6,85.2,77.5,81.0,78.0,74.9,97,80,54,30.03,29.93,8,0,10,0.00
2013-7-26,96.3,84.2,74.9,80.1,77.0,72.4,99,81,47,30.05,29.91,9,0,9,0.00
2013-7-27,90.2,82.3,76.0,81.6,77.5,73.5,97,86,71,29.93,29.86,13,1,14,0.13
2013-7-28,91.8,78.6,72.4,81.1,75.8,71.5,99,92,67,29.99,29.90,8,0,8,0.42
2013-7-29,94.8,82.2,71.6,80.3,74.9,70.6,100,81,48,30.09,29.98,13,0,13,0.00
2013-7-30,95.8,81.9,70.8,79.8,74.7,70.2,100,82,46,30.13,30.03,8,0,8,0.00
2013-7-31,96.8,82.8,71.0,79.3,75.7,70.7,100,81,49,30.10,29.94,9,0,10,0.00
2013-8-1,98.8,87.1,75.8,80.7,77.8,73.9,98,76,48,30.03,29.89,9,0,9,0.00
2013-8-2,98.3,88.8,79.1,79.4,77.3,74.9,93,70,52,29.98,29.90,6,0,6,0.00
2013-8-3,98.3,84.4,73.7,79.6,76.9,73.4,100,80,47,30.05,29.96,8,0,8,0.00
2013-8-4,99.6,83.7,74.7,81.3,77.8,74.4,100,85,47,30.09,29.97,12,0,12,0.18
2013-8-5,97.5,85.4,75.5,80.1,77.3,73.7,100,80,49,30.05,29.92,9,0,10,0.00
2013-8-6,98.8,85.8,74.0,80.5,77.7,73.7,100,79,50,29.98,29.87,11,1,11,0.00
2013-8-7,99.6,90.2,80.7,80.4,77.7,73.7,92,69,47,29.97,29.84,11,1,16,0.00
2013-8-8,99.3,84.6,74.9,79.7,76.2,72.6,99,79,44,29.95,29.85,8,0,8,0.00
2013-8-9,101.5,84.9,70.5,80.5,75.8,70.2,100,78,44,29.98,29.85,7,0,7,0.00
2013-8-10,94.3,80.5,73.6,82.2,77.2,72.7,99,91,61,30.05,29.95,10,0,10,0.18
2013-8-11,92.4,79.3,72.4,81.6,76.4,72.1,100,92,63,30.07,30.01,5,0,5,0.37
2013-8-12,96.5,83.9,73.5,80.7,76.7,73.5,100,81,52,30.08,29.95,9,0,9,0.00
2013-8-13,98.8,86.2,76.9,80.1,77.7,74.3,99,78,49,30.04,29.89,10,1,10,0.00
2013-8-14,93.7,81.2,74.4,79.9,76.8,73.0,99,88,53,30.00,29.89,10,0,10,1.76
2013-8-15,87.7,76.9,71.1,78.8,74.3,70.5,100,92,70,30.03,29.91,4,0,5,0.01
2013-8-16,93.2,79.7,68.4,77.3,72.8,67.9,99,81,53,29.99,29.90,5,0,5,0.00
2013-8-17,91.3,78.2,67.7,73.1,68.6,65.0,93,75,44,30.00,29.91,7,0,7,0.00
2013-8-18,93.2,79.0,68.6,76.2,71.1,67.1,98,79,46,30.03,29.95,8,0,8,0.00
2013-8-19,96.0,79.6,67.7,74.6,70.0,64.2,99,76,39,30.05,29.92,6,0,6,0.00
2013-8-20,90.6,76.9,68.6,78.9,73.6,68.3,99,91,59,30.03,29.96,6,0,6,0.25
2013-8-21,95.6,81.5,70.9,79.3,73.9,70.6,100,81,47,30.09,29.97,6,0,7,0.00
2013-8-22,96.7,82.8,73.0,80.1,75.7,72.4,99,81,49,30.07,29.93,7,0,7,0.00
2013-8-23,99.1,83.9,73.0,79.6,75.9,72.7,100,80,46,30.01,29.87,6,0,7,0.00
2013-8-24,95.7,83.6,73.6,77.4,74.4,72.5,99,76,49,30.03,29.94,8,0,8,0.00
2013-8-25,89.8,80.0,74.9,78.3,74.9,72.7,95,85,67,30.12,30.02,9,0,10,0.00
2013-8-26,85.0,76.0,73.0,77.7,74.3,72.3,99,95,75,30.15,30.07,8,0,8,0.51
2013-8-27,93.8,79.1,71.0,78.1,74.1,71.0,100,86,57,30.13,30.01,6,0,7,0.01
2013-8-28,97.8,82.8,70.5,78.2,74.0,70.2,100,78,45,30.09,29.96,8,0,8,0.00
2013-8-29,99.2,84.2,73.9,79.3,74.9,69.7,99,77,41,30.06,29.92,10,0,11,0.00
2013-8-30,98.0,83.9,73.3,80.0,75.9,72.7,99,79,48,30.02,29.89,8,0,8,0.00
2013-8-31,97.7,82.6,71.7,78.9,73.7,69.2,100,78,42,29.95,29.83,6,0,6,0.00
2013-9-1,97.0,82.7,70.8,77.6,73.6,70.4,100,77,45,29.95,29.82,8,0,8,0.00
2013-9-2,100.2,84.8,72.7,80.5,75.6,70.0,100,77,40,29.98,29.82,12,0,12,0.00
2013-9-3,99.5,83.4,73.8,79.8,75.4,71.8,97,80,43,29.97,29.85,5,0,11,0.00
2013-9-4,97.5,80.3,70.9,80.0,74.8,70.6,99,86,52,30.04,29.92,7,0,7,0.00
2013-9-5,95.2,79.8,71.8,82.3,75.7,71.5,100,89,58,30.09,29.98,10,0,13,0.02
2013-9-6,94.8,80.8,71.4,80.6,75.7,71.1,100,86,57,30.09,29.97,9,0,9,0.01
2013-9-7,91.3,78.0,72.0,79.7,74.2,71.7,100,89,60,30.04,29.94,8,0,8,0.00
2013-9-8,95.8,80.8,68.9,77.7,73.2,68.8,100,81,49,30.00,29.89,6,0,6,0.00
2013-9-9,94.9,80.1,70.3,78.3,73.5,70.0,100,83,48,30.01,29.93,9,0,9,0.00
2013-9-10,94.1,80.5,69.9,77.7,73.3,69.5,100,81,51,30.08,29.98,8,0,9,0.00
2013-9-11,94.3,81.2,70.0,77.4,73.0,68.0,99,79,44,30.09,29.99,6,0,7,0.00
2013-9-12,98.1,82.8,71.6,77.0,71.5,65.3,99,73,36,30.04,29.89,9,0,9,0.00
2013-9-13,99.8,83.1,69.4,75.9,72.3,69.0,100,74,39,29.94,29.78,8,0,8,0.00
2013-9-14,95.0,81.4,73.9,76.4,74.0,71.7,98,81,48,29.94,29.83,8,0,8,0.00
2013-9-15,96.2,81.6,71.4,78.0,74.2,69.4,98,80,46,30.01,29.92,9,0,9,0.00
2013-9-16,95.1,81.6,71.4,78.5,73.7,68.2,99,80,44,30.05,29.95,4,0,5,0.00
2013-9-17,97.5,82.6,72.2,78.1,74.0,71.5,100,79,44,30.06,29.92,9,0,9,0.00
2013-9-18,96.0,82.3,72.1,78.0,74.4,71.4,99,79,50,30.01,29.90,8,0,9,0.00
2013-9-19,91.8,79.4,73.5,83.1,76.1,72.6,99,90,63,29.97,29.87,10,0,11,2.55
2013-9-20,77.8,75.9,73.0,77.8,75.8,73.0,100,100,99,29.93,29.73,10,0,11,3.19
2013-9-21,76.0,72.4,68.0,73.0,71.0,67.4,100,96,86,29.82,29.72,7,0,7,0.23
2013-9-22,85.9,73.2,64.9,67.8,62.3,56.1,99,71,39,29.85,29.73,8,0,8,0.00
2013-9-23,89.8,75.7,62.8,76.4,68.1,59.3,94,78,58,29.83,29.73,5,0,6,0.00
2013-9-24,92.3,80.4,70.4,80.6,75.6,69.7,98,87,55,29.85,29.76,11,0,11,0.00
2013-9-25,96.3,77.3,64.5,74.2,65.2,53.4,100,74,25,29.86,29.76,7,0,7,0.00
2013-9-26,93.9,75.8,62.0,75.5,67.4,61.7,100,80,40,29.93,29.81,6,0,6,0.00
2013-9-27,91.7,77.5,66.6,75.9,70.6,66.3,100,82,50,29.97,29.89,7,0,7,0.00
2013-9-28,91.3,82.6,73.1,77.2,74.7,70.8,97,78,60,30.01,29.92,10,1,10,0.00
2013-9-29,83.7,75.1,71.2,78.2,73.9,71.2,100,96,82,30.02,29.90,12,0,12,1.73
2013-9-30,79.0,72.8,71.5,74.6,72.3,71.2,100,98,86,29.91,29.83,3,0,5,0.35
2013-10-1,87.1,75.5,71.1,79.5,74.1,71.0,100,96,75,29.95,29.87,12,0,12,0.68
2013-10-2,89.3,77.5,71.9,79.1,74.8,71.9,100,92,66,30.01,29.89,7,0,7,0.02
2013-10-3,89.0,77.7,70.5,79.4,74.1,70.2,100,90,65,29.97,29.88,6,0,6,0.00
2013-10-4,91.1,77.7,69.4,81.2,74.7,69.2,100,91,69,29.96,29.88,9,0,9,0.00
2013-10-5,92.7,80.0,70.5,80.5,76.5,69.6,100,90,63,29.94,29.83,9,0,10,0.09
2013-10-6,78.3,64.2,53.5,69.3,57.7,51.0,97,82,40,30.07,29.92,8,0,8,0.00
2013-10-7,81.2,63.0,49.8,60.6,53.5,46.5,98,75,41,30.12,30.01,7,0,7,0.00
2013-10-8,81.2,63.5,50.9,64.9,56.9,50.6,100,82,49,30.10,29.99,5,0,5,0.00
2013-10-9,83.5,65.7,51.6,66.6,59.2,51.3,100,83,49,30.09,30.00,5,0,6,0.00
2013-10-10,85.6,68.7,55.1,69.9,63.2,54.8,100,85,57,30.08,29.95,5,0,5,0.00
2013-10-11,89.2,73.1,59.5,75.9,68.9,59.5,100,88,60,29.99,29.89,7,0,7,0.00
2013-10-12,90.3,77.2,70.4,79.9,74.2,69.7,100,91,68,30.09,29.92,7,0,7,0.16
2013-10-13,76.7,72.1,68.5,73.2,70.9,68.2,100,96,87,30.16,30.04,6,0,6,0.00
2013-10-14,84.2,74.8,70.4,76.3,72.5,70.4,100,93,72,30.11,29.98,5,0,5,0.00
2013-10-15,87.5,74.9,68.1,77.5,72.3,67.8,100,92,65,30.00,29.90,6,0,6,0.15
2013-10-16,81.3,72.9,67.1,75.7,71.1,66.5,100,94,79,29.98,29.89,4,0,4,0.02
2013-10-17,77.3,64.9,53.4,66.4,61.6,52.9,100,90,59,30.07,29.97,5,0,5,0.03
2013-10-18,69.9,60.3,51.9,65.0,58.5,51.6,100,94,78,30.05,29.91,4,0,4,0.55
2013-10-19,72.0,61.0,48.0,61.2,57.1,47.4,100,88,53,30.09,29.94,9,0,9,0.19
2013-10-20,74.9,56.6,42.3,60.3,50.9,42.0,100,84,48,30.11,29.96,5,0,5,0.00
2013-10-21,73.1,62.3,51.5,68.3,60.6,51.2,100,94,82,30.02,29.93,5,0,5,0.00
2013-10-22,74.7,63.7,50.8,64.7,60.4,50.4,99,90,58,30.08,29.97,9,0,9,0.00
2013-10-23,82.5,61.2,46.3,60.3,52.8,46.3,100,79,35,30.14,30.07,4,0,4,0.00
2013-10-24,86.3,63.8,48.6,65.0,56.3,48.3,100,81,40,30.22,30.11,7,0,7,0.00
2013-10-25,73.7,60.3,51.2,58.8,54.1,49.2,99,82,54,30.38,30.21,8,0,8,0.00
2013-10-26,78.9,59.7,45.2,64.9,55.0,44.7,99,86,54,30.29,30.11,7,0,7,0.00
2013-10-27,78.5,66.1,59.3,70.9,63.9,59.0,100,93,68,30.11,30.00,7,0,8,0.31
2013-10-28,83.0,69.2,57.9,73.3,66.3,57.9,100,91,70,30.14,30.02,5,0,5,0.00
2013-10-29,83.5,72.0,65.4,74.4,69.0,65.1,100,91,68,30.15,30.07,8,0,8,0.00
2013-10-30,75.1,71.5,67.8,74.8,71.3,67.5,100,99,97,30.12,29.87,11,0,11,1.25
2013-10-31,76.8,70.2,62.2,76.0,70.0,62.2,100,99,96,29.89,29.73,18,1,18,4.56
2013-11-1,79.2,64.7,56.0,64.5,59.9,56.0,100,87,49,29.95,29.83,5,0,5,0.01
2013-11-2,73.2,60.1,45.3,60.8,51.8,42.4,99,78,35,30.22,29.94,8,0,10,0.00
2013-11-3,68.3,52.6,43.3,52.6,46.6,43.0,100,83,48,30.25,30.11,6,0,6,0.00
2013-11-4,75.0,62.5,45.5,64.1,57.0,45.1,100,83,63,30.14,30.05,8,0,8,0.00
2013-11-5,78.7,70.2,62.4,71.5,66.9,60.8,97,90,76,30.08,30.00,9,1,9,0.00
2013-11-6,83.7,68.8,51.3,74.5,66.4,49.3,98,92,73,30.24,30.00,10,0,10,0.22
2013-11-7,67.7,53.7,44.2,49.5,44.8,40.7,95,75,39,30.38,30.23,9,0,10,0.00
2013-11-8,67.5,53.6,44.1,52.5,46.4,41.3,98,80,42,30.38,30.19,7,0,7,0.00
2013-11-9,69.9,57.8,47.9,56.6,51.9,47.1,98,82,57,30.24,30.16,5,0,5,0.00
2013-11-10,74.9,58.4,47.7,62.1,53.9,46.3,99,86,61,30.30,30.19,6,0,6,0.00
2013-11-11,75.9,59.1,48.3,61.2,54.1,48.0,100,86,53,30.26,30.14,4,0,4,0.00
2013-11-12,71.9,53.7,40.8,61.5,49.5,32.8,100,86,66,30.58,30.22,10,0,12,0.00
2013-11-13,57.8,41.4,29.6,37.8,31.4,26.6,95,71,35,30.62,30.42,8,0,9,0.00
2013-11-14,60.4,43.5,28.9,45.6,38.2,28.4,98,84,50,30.42,30.10,4,0,4,0.00
2013-11-15,78.5,61.0,47.0,66.6,56.8,44.6,99,87,65,30.10,29.92,5,0,6,0.00
2013-11-16,79.0,69.0,54.5,74.0,67.7,54.2,100,96,83,29.97,29.83,8,1,8,0.03
2013-11-17,84.9,76.8,72.5,77.3,74.6,72.2,100,93,75,29.94,29.80,13,1,14,0.15
2013-11-18,74.0,67.5,57.6,73.7,60.3,45.1,100,79,45,30.13,29.94,8,0,9,0.24
2013-11-19,68.8,56.1,45.2,51.8,46.5,42.9,97,72,46,30.17,30.05,7,0,7,0.00
2013-11-20,71.0,56.3,40.4,59.8,49.6,38.1,95,79,56,30.08,29.97,5,0,5,0.00
2013-11-21,77.7,69.2,61.6,71.9,67.2,59.6,99,93,82,30.11,30.01,9,1,10,0.00
2013-11-22,72.1,62.4,48.8,71.8,62.2,48.4,100,99,93,30.25,30.08,10,0,10,0.10
2013-11-23,50.7,47.5,42.5,50.6,46.5,38.3,100,96,85,30.40,30.23,9,0,9,0.14
2013-11-24,50.7,43.0,37.9,38.6,34.3,30.1,92,72,50,30.44,30.31,9,0,10,0.00
2013-11-25,41.3,39.1,36.7,40.8,38.1,35.5,99,96,89,30.31,29.94,8,0,8,2.01
2013-11-26,40.6,39.1,37.2,40.3,38.8,37.1,100,99,98,30.23,29.94,5,0,10,1.29
2013-11-27,51.1,37.7,28.7,37.1,33.3,28.1,100,86,51,30.43,30.23,10,0,11,0.00
2013-11-28,53.3,36.7,28.6,40.6,33.1,28.1,99,88,57,30.51,30.38,2,0,3,0.00
2013-11-29,61.9,40.3,26.2,40.0,33.4,26.0,99,81,36,30.53,30.40,4,0,4,0.01
2013-11-30,69.1,47.6,32.0,53.2,43.0,31.4,99,86,52,30.42,30.24,3,0,3,0.00
2013-12-1,69.6,57.5,44.0,60.1,54.4,43.7,99,90,70,30.24,29.96,8,0,8,0.00
2013-12-2,78.2,65.6,58.4,66.1,61.9,57.8,99,89,65,29.97,29.69,12,1,12,0.00
2013-12-3,80.1,68.7,59.2,69.7,65.7,58.9,100,91,67,29.74,29.62,13,1,15,0.00
2013-12-4,79.7,72.6,68.5,72.9,70.6,68.0,99,94,78,29.84,29.72,11,1,11,0.00
2013-12-5,78.7,63.4,44.5,75.0,62.0,43.9,98,95,81,30.01,29.81,6,0,13,0.01
2013-12-6,44.5,41.8,38.2,44.0,40.7,36.1,99,96,89,30.34,29.96,6,0,6,0.05
2013-12-7,38.2,36.5,34.4,36.4,34.2,32.6,94,91,88,30.39,30.27,3,0,7,0.00
2013-12-8,45.0,40.7,35.5,43.1,37.9,33.3,97,90,83,30.30,30.06,4,0,4,0.00
2013-12-9,45.3,43.3,38.7,44.5,42.7,38.2,99,98,96,30.28,30.06,6,0,6,0.04
2013-12-10,47.4,38.5,30.9,38.2,34.7,30.1,98,87,65,30.44,30.28,6,0,6,0.00
2013-12-11,52.1,41.5,30.2,44.0,37.6,29.9,99,87,68,30.51,30.35,3,0,4,0.00
2013-12-12,54.9,40.8,34.0,41.7,36.0,32.6,98,84,51,30.56,30.36,6,0,7,0.00
2013-12-13,60.7,48.1,35.0,60.7,45.0,33.4,100,89,71,30.36,29.87,5,0,5,0.26
2013-12-14,61.2,52.0,41.9,61.2,49.5,37.1,100,92,79,30.25,29.85,12,0,12,0.00
2013-12-15,56.9,40.7,29.9,41.8,35.2,29.2,98,83,51,30.37,30.25,7,0,7,0.00
2013-12-16,64.2,42.4,27.6,43.6,35.8,27.4,99,82,39,30.35,30.23,5,0,8,0.00
2013-12-17,71.3,46.7,30.2,51.5,40.9,30.0,100,84,41,30.35,30.24,8,0,8,0.00
2013-12-18,70.0,50.0,34.5,54.6,44.4,34.2,100,84,45,30.34,30.15,5,0,5,0.00
2013-12-19,72.9,60.8,46.8,67.7,58.7,46.3,100,93,76,30.15,29.92,13,1,13,0.07
2013-12-20,75.2,71.5,69.2,72.3,69.9,67.7,99,95,90,29.95,29.80,12,1,12,0.11
2013-12-21,74.6,66.7,52.5,73.0,66.1,52.5,100,98,81,29.82,29.56,15,2,19,1.60
2013-12-22,60.1,51.6,34.4,58.6,50.1,32.7,100,95,82,30.32,29.80,9,0,9,0.03
2013-12-23,52.2,38.2,30.2,38.7,33.8,29.6,98,85,56,30.53,30.31,7,0,8,0.00
2013-12-24,57.6,37.8,25.6,38.8,32.0,25.4,99,83,40,30.58,30.35,5,0,5,0.00
2013-12-25,61.5,44.7,30.4,45.4,37.3,29.9,99,79,35,30.40,30.29,4,0,4,0.00
2013-12-26,63.4,49.3,38.0,47.8,43.0,37.1,99,81,48,30.42,30.28,4,0,5,0.00
2013-12-27,54.0,47.3,43.1,43.5,41.5,38.8,97,81,60,30.45,30.32,4,0,5,0.00
2013-12-28,56.4,46.7,38.5,45.1,40.6,37.6,98,80,60,30.32,30.03,4,0,4,0.00
2013-12-29,67.3,48.4,33.0,50.2,41.1,32.8,100,80,37,30.16,30.01,5,0,5,0.00
2013-12-30,49.5,43.3,38.1,47.3,39.0,35.9,93,85,77,30.40,30.14,5,0,5,0.00
2013-12-31,49.4,42.5,37.6,41.9,38.6,35.2,93,86,68,30.43,30.28,4,0,4,0.00
2014-1-1,60.7,51.9,43.6,56.0,49.2,40.5,96,91,83,30.29,30.03,7,0,7,0.00
2014-1-2,57.0,46.1,31.4,56.3,36.7,25.4,98,72,40,30.43,30.05,12,0,12,0.00